Theta_e
312 313 313 313 313 313 313 314 314 315 316 317 319 322 325 327 329 329 332 330 330 330 329 335 336 338 339 341 340 342 346 341 341 341 341 339 340 340 340 343 342 340 337 339 338
313 313 313 313 313 313 313 314 314 315 315 317 318 321 324 328 329 331 331 330 330 330 335 335 334 337 340 340 341 342 340 339 339 339 340 340 340 340 342 343 342 339 337 336 339
313 313 313 313 313 313 313 314 314 315 315 316 318 320 324 328 331 335 330 330 331 330 333 331 333 336 338 338 338 340 339 340 340 339 339 340 340 340 342 343 341 340 339 340 342
313 313 313 313 313 313 313 316 316 316 315 316 317 319 323 326 335 333 331 331 330 330 332 332 335 336 337 337 336 339 337 339 340 339 341 342 340 342 343 344 341 339 339 341 342
314 314 314 314 313 313 314 318 318 318 316 316 317 319 322 330 333 332 332 331 330 330 332 333 335 335 336 336 336 339 338 339 341 341 341 341 342 343 344 343 340 339 341 342 343
314 314 314 314 314 313 316 319 318 319 320 316 317 318 322 330 333 332 333 331 332 333 332 333 334 334 335 335 337 336 337 338 340 341 342 342 342 342 345 343 340 340 341 343 343
315 315 315 315 314 313 317 318 319 319 320 317 317 318 326 331 333 334 333 333 332 332 333 333 333 333 334 336 336 337 340 340 339 340 342 341 344 346 345 344 342 341 341 341 341
315 316 316 315 314 314 317 318 320 320 320 317 317 318 328 328 331 333 333 333 332 332 332 333 333 333 334 335 336 338 341 339 340 339 342 342 350 345 344 345 344 344 343 342 341
316 317 316 316 315 315 318 319 319 320 318 318 318 325 329 328 330 331 332 333 333 333 332 332 332 334 335 336 338 340 341 337 341 339 340 341 346 345 343 342 343 343 342 340 341
315 317 317 316 316 316 318 319 321 321 320 317 325 324 328 329 331 331 331 331 332 333 333 333 334 336 337 337 341 341 336 336 337 338 337 339 340 345 342 341 342 341 341 341 341
315 317 317 316 316 316 316 323 322 323 323 324 325 328 329 329 329 331 331 332 332 333 335 335 336 336 336 335 336 336 336 337 337 340 338 340 339 341 343 341 340 340 341 341 342
315 316 317 316 315 315 319 321 319 319 322 323 324 324 325 327 331 332 331 332 334 335 335 336 336 336 334 335 335 335 337 336 337 340 339 339 342 341 340 340 341 341 341 342 343
314 315 317 317 315 317 319 318 317 319 324 324 323 325 327 327 332 332 331 332 334 334 335 336 336 334 334 335 335 335 336 337 335 337 340 337 343 342 341 341 340 340 342 343 341
312 313 315 318 317 317 320 316 317 321 329 326 324 325 327 329 331 332 331 332 333 334 335 336 335 334 334 334 335 335 336 335 335 337 338 341 346 344 342 342 340 340 340 339 340
311 312 313 313 313 318 318 316 319 322 333 327 325 325 328 329 330 331 330 330 332 334 334 334 335 334 334 335 334 334 334 334 336 337 338 342 342 347 339 342 340 340 340 340 339
311 311 313 312 316 319 317 319 323 331 336 327 326 326 329 328 330 330 330 329 330 332 334 333 333 333 333 334 334 334 336 341 339 340 342 341 341 345 343 338 339 338 335 335 335
310 311 312 312 317 318 321 323 334 337 333 328 326 326 329 329 330 330 331 331 331 332 333 333 333 334 332 334 337 337 338 344 347 349 343 341 340 345 341 337 335 335 335 336 336
310 311 312 312 316 320 323 330 340 334 332 329 326 327 328 330 330 330 332 332 332 332 334 335 335 333 333 333 334 335 338 338 342 338 340 340 343 343 340 337 335 335 337 337 337
310 312 316 319 319 320 325 332 338 333 331 329 327 328 329 330 330 330 331 332 333 333 333 335 333 333 332 333 333 335 336 338 338 338 340 340 339 340 338 338 337 337 338 337 338
310 312 316 321 319 323 327 329 333 331 329 330 328 329 330 329 329 331 331 331 331 332 332 334 336 334 334 333 333 335 335 335 341 347 344 340 342 345 340 340 338 339 338 338 338
310 317 322 321 321 326 328 330 329 327 328 332 333 330 333 330 329 330 330 331 330 331 331 333 335 334 333 333 335 336 337 340 337 337 341 342 342 339 341 340 340 339 338 339 337
314 319 320 321 326 327 329 328 323 328 329 332 335 335 334 333 330 330 330 331 329 330 331 331 334 335 334 336 334 332 335 338 339 342 342 340 342 340 341 341 340 339 340 339 337
316 317 318 322 327 329 326 326 325 328 332 333 335 335 335 335 335 333 332 331 332 333 335 334 335 337 335 335 339 337 337 337 337 339 338 337 341 340 342 342 340 340 339 338 335
315 320 317 321 324 331 329 327 328 327 332 332 335 335 336 335 334 336 333 335 331 333 332 336 336 337 334 334 336 337 334 335 335 337 337 336 335 342 343 344 343 341 339 337 333
314 319 327 325 324 326 330 328 328 331 331 333 335 336 335 336 335 335 334 337 336 334 332 337 340 335 334 333 333 333 333 333 335 336 337 337 337 336 342 344 343 342 339 333 334
319 318 321 325 329 328 324 330 327 330 334 334 337 335 336 336 338 344 338 337 337 338 340 341 341 337 334 333 335 335 334 334 334 335 336 337 337 339 340 340 343 341 337 334 333
318 317 321 322 325 327 327 328 330 330 332 335 337 339 336 340 339 340 341 343 343 343 342 344 340 341 337 335 339 338 336 337 336 336 336 337 336 343 344 342 341 339 337 335 334
Wind_Speed
19 19 19 18 17 16 14 13 11 10 9 8 8 7 7 7 7 7 6 1 5 6 6 3 4 5 5 8 7 11 7 1 10 3 2 12 3 6 4 8 9 9 10 16 13
19 19 19 19 18 17 16 14 12 10 10 9 9 8 7 8 7 11 6 6 5 5 1 5 8 4 14 0 2 11 6 17 10 9 12 5 5 8 2 8 12 13 12 15 16
20 19 19 20 18 18 16 14 12 11 9 9 10 9 7 7 9 5 3 3 2 3 4 6 6 6 13 3 5 6 12 12 14 11 9 12 2 5 9 8 7 15 14 15 14
21 20 19 20 20 19 16 13 13 11 9 9 9 9 7 7 5 5 2 1 1 2 7 7 7 13 10 3 5 9 11 10 12 7 4 10 6 11 9 7 5 11 12 12 10
21 21 20 21 21 20 14 13 14 10 8 9 9 9 7 10 6 2 3 2 2 3 6 9 9 13 14 9 4 5 8 5 6 4 9 3 8 6 8 4 4 8 10 10 8
21 22 22 21 21 20 13 14 13 8 7 8 9 10 8 17 3 2 3 2 3 5 8 7 11 12 11 6 8 4 4 4 1 5 5 7 9 3 8 4 7 9 8 6 2
21 22 22 22 22 18 13 15 12 7 6 8 9 9 10 7 5 6 5 5 5 7 9 6 10 14 11 6 1 3 15 12 10 9 3 6 9 11 6 6 7 8 7 5 4
21 21 22 23 22 15 12 14 7 4 3 6 8 8 14 10 7 8 9 8 8 7 9 10 12 14 9 5 10 12 19 9 14 4 7 8 10 9 7 10 7 6 6 6 4
21 21 22 23 22 12 12 12 2 6 2 4 6 8 16 11 11 10 10 10 9 7 8 11 14 18 11 15 23 31 13 9 12 12 3 1 12 9 5 6 5 8 7 6 7
21 21 21 22 21 11 13 6 2 3 3 4 6 8 10 16 15 10 9 8 10 11 12 13 21 15 16 9 4 13 10 6 2 9 8 4 7 13 8 6 7 7 9 7 6
21 20 20 21 20 12 12 9 6 4 10 10 8 15 7 8 9 12 11 9 12 14 16 20 11 7 11 8 11 11 11 12 14 8 8 7 7 8 14 9 8 9 9 8 5
21 20 19 19 16 11 10 6 7 6 10 12 13 12 7 7 14 15 12 12 14 15 20 9 13 2 5 8 10 15 16 10 3 5 7 14 15 12 7 6 8 6 8 9 6
20 20 20 17 11 13 5 3 6 8 8 12 16 14 12 13 18 20 15 16 14 15 16 15 7 5 7 13 15 14 8 14 16 10 18 6 3 4 11 6 6 6 5 4 2
20 20 20 16 6 12 1 7 9 5 5 13 13 11 14 15 14 12 14 18 12 14 13 14 13 4 11 16 15 13 10 16 20 13 9 13 6 4 9 5 7 10 9 6 3
19 19 17 18 16 7 7 9 8 2 6 8 16 7 19 18 16 17 12 13 15 13 8 15 11 7 12 10 12 16 15 18 18 16 15 10 10 11 29 7 6 6 6 5 2
18 19 16 16 14 9 10 9 4 6 3 9 11 13 16 23 20 5 14 16 12 14 13 13 17 5 15 6 9 10 13 18 16 14 6 11 13 8 6 9 8 9 9 4 2
18 17 16 14 5 10 9 5 7 8 5 7 11 18 19 18 17 12 13 16 14 12 16 18 18 11 4 14 9 8 15 3 4 8 4 17 11 8 21 8 8 6 9 6 7
17 16 15 12 8 8 6 8 8 5 1 4 8 14 17 15 17 14 9 12 18 18 13 7 11 9 7 9 11 14 9 9 18 10 7 11 5 11 12 11 7 6 6 6 9
16 11 13 8 5 4 9 9 5 3 4 5 9 14 12 12 9 16 15 13 8 12 14 4 8 7 2 5 4 6 9 11 12 17 12 2 3 6 12 11 7 7 7 6 7
16 12 10 9 6 5 7 13 7 3 6 9 12 13 13 13 13 12 14 12 14 7 11 4 9 2 8 6 12 10 11 11 4 5 14 7 12 3 24 13 8 8 7 5 4
10 7 7 6 5 10 9 5 2 2 3 5 4 8 3 9 11 13 9 10 6 12 16 11 7 13 3 13 7 5 4 11 6 8 11 12 3 14 26 8 7 7 5 4 4
6 7 6 7 10 15 11 3 2 7 4 5 7 6 3 2 6 6 7 2 4 5 9 13 5 11 16 6 7 8 11 11 9 3 8 9 5 9 6 4 8 6 5 6 7
5 12 5 8 7 10 9 8 6 5 3 3 7 5 2 4 3 3 2 9 3 7 2 6 7 9 15 11 15 14 9 3 6 10 14 13 4 11 9 8 7 5 6 3 5
5 4 12 14 16 10 6 11 9 8 7 5 6 5 7 6 5 2 7 4 6 8 4 4 8 8 13 6 9 11 8 9 5 8 14 15 6 9 10 9 7 3 2 5 6
7 5 5 6 13 13 6 4 12 7 9 6 8 11 10 7 8 9 6 10 5 5 5 5 10 14 13 13 10 12 14 11 9 11 13 16 19 16 7 8 8 6 2 2 2
5 5 5 11 4 7 7 11 11 7 5 10 9 5 8 10 7 11 3 1 6 8 7 5 8 9 13 16 11 14 14 13 14 14 15 14 17 13 4 5 7 7 2 3 5
5 6 5 8 9 10 13 13 10 0 7 5 3 7 12 6 6 8 6 5 5 5 7 6 9 7 13 11 11 10 11 15 10 13 16 13 15 13 20 7 9 5 2 2 4
Wind_Direction
0 358 354 352 348 343 338 327 317 303 286 275 268 271 283 289 301 289 284 52 262 297 315 287 278 271 267 247 292 268 359 11 58 49 78 101 224 65 42 118 73 59 80 120 146
2 354 349 349 344 342 337 329 318 303 288 272 262 261 274 293 298 259 257 263 258 297 75 287 308 291 249 235 295 284 345 36 26 7 354 76 302 101 154 134 130 101 107 130 147
359 356 347 344 342 339 334 328 321 306 283 266 258 252 264 297 270 127 242 244 248 299 291 304 297 271 278 255 39 315 27 9 56 31 340 25 50 44 50 355 136 128 137 146 155
358 355 350 341 343 338 334 330 324 310 283 258 247 243 247 256 267 122 199 216 171 311 293 295 283 281 283 352 49 285 67 19 23 35 9 37 23 88 32 70 77 117 147 153 168
354 351 350 342 342 339 336 328 321 306 282 249 234 228 230 240 231 151 221 228 172 264 287 306 283 337 348 348 307 283 54 44 53 64 20 15 52 57 86 94 135 148 153 167 184
350 350 349 343 341 341 333 328 322 294 279 240 223 216 219 249 128 233 217 203 180 256 294 306 332 342 292 334 312 25 0 62 36 65 106 255 111 213 104 141 154 164 174 174 185
346 348 347 343 343 342 333 332 326 298 266 226 214 206 236 240 178 190 193 194 228 250 289 326 309 306 340 262 333 247 239 192 108 60 84 286 185 91 113 166 155 184 190 209 207
342 345 345 344 345 343 337 337 343 333 247 211 201 191 244 198 191 200 209 231 232 250 268 290 294 287 272 327 250 259 325 126 95 30 95 274 94 111 149 178 157 180 182 200 173
340 342 345 344 344 343 337 335 289 13 308 193 184 199 221 221 206 212 213 233 212 238 258 274 273 270 255 229 32 324 262 40 103 73 320 255 109 130 147 134 151 181 175 174 177
337 338 343 343 345 339 347 352 310 312 0 167 239 214 227 205 193 199 208 224 238 238 243 241 242 252 262 344 180 241 352 348 12 55 324 11 25 124 174 188 159 164 179 190 208
334 334 340 342 345 345 357 325 253 211 218 236 209 212 145 170 194 204 205 225 235 246 257 230 284 255 18 335 328 307 306 19 328 95 299 61 311 99 168 177 178 181 177 204 226
331 332 335 343 344 348 10 24 32 337 294 241 234 235 236 211 199 211 198 223 213 245 230 253 251 58 327 299 290 287 302 333 247 348 294 353 43 14 160 155 171 190 186 196 204
327 330 331 342 348 3 355 37 345 326 258 212 219 226 205 201 213 198 200 221 247 237 262 266 246 81 279 288 285 298 346 316 317 311 73 262 214 266 120 180 112 125 189 177 232
324 327 331 336 347 339 291 335 333 295 260 164 200 218 195 204 218 216 201 236 239 254 251 259 274 352 284 281 295 294 347 313 301 290 302 228 118 180 268 146 229 175 158 134 130
320 322 327 328 323 342 301 322 320 279 236 147 158 153 196 204 203 202 218 237 262 243 229 261 253 268 268 299 336 302 321 301 308 291 284 22 298 56 326 142 133 116 119 122 160
316 316 317 328 325 307 314 312 311 231 215 154 171 195 200 206 229 139 203 228 260 277 273 265 283 255 281 334 305 306 279 42 351 351 306 207 250 140 169 133 118 109 93 107 51
310 308 305 304 274 300 310 287 237 255 115 154 186 184 196 195 211 205 205 201 226 223 243 240 239 226 256 259 202 256 273 125 258 255 165 281 339 160 222 106 103 119 110 89 14
309 305 293 288 272 288 303 251 264 43 142 91 177 187 198 191 209 196 226 226 208 252 282 254 238 177 188 273 334 306 337 302 311 331 349 163 206 231 129 107 139 143 108 51 27
312 310 288 289 274 247 271 244 316 72 42 196 193 189 195 186 225 210 215 244 221 209 250 254 217 132 255 274 284 337 283 337 310 315 283 102 190 61 129 121 170 115 84 62 50
318 311 260 227 238 228 252 259 299 18 284 256 191 207 186 197 198 209 210 218 246 229 232 288 293 254 118 263 233 260 308 285 93 226 273 181 94 165 301 152 133 129 110 81 25
320 271 205 223 208 234 242 243 259 85 273 251 266 202 215 161 200 208 237 202 243 237 217 239 251 282 176 227 285 254 256 261 293 316 10 346 325 195 210 186 125 117 99 85 16
277 244 184 187 232 230 244 233 5 266 216 251 295 327 198 160 214 227 223 223 154 251 237 225 241 257 261 77 278 281 298 327 306 0 170 191 257 127 341 163 152 125 125 46 2
254 262 251 203 238 223 213 250 237 247 226 219 217 284 239 196 188 224 39 74 164 218 19 143 220 249 243 225 0 286 273 272 296 291 279 295 33 195 165 156 170 139 108 167 2
262 243 210 218 254 287 202 233 215 201 247 243 284 236 208 220 208 203 203 127 198 230 25 333 273 260 292 338 219 230 253 242 281 289 309 311 320 127 198 171 157 180 131 35 354
219 247 348 194 219 229 266 294 222 197 226 221 214 240 216 227 223 207 236 131 176 173 208 228 252 257 252 282 308 288 292 298 246 261 287 308 305 309 164 173 183 156 131 353 351
269 269 264 276 266 226 194 232 240 195 243 198 248 171 248 237 328 356 18 344 167 167 190 201 264 277 291 287 243 271 285 285 276 276 275 298 288 4 169 204 158 193 145 285 17
234 277 281 237 212 234 224 231 224 108 221 287 295 276 229 58 6 335 312 294 294 286 209 220 272 257 271 297 322 274 280 284 308 312 315 290 289 153 186 234 186 196 210 327 341